Bellefontaine, OH

8:22 AM EST on December 11, 2016 (GMT -0500)
Bellefontaine

Weather History for KEDJ - July, 2014

Change the Weather History Date:

Monday, July 28, 2014

  Actual Average (KDAY) Record (KDAY)
Temperature  
Mean Temperature 65 °F -  
Max Temperature 71 °F 84 °F 102 °F (1901)
Min Temperature 59 °F 63 °F 53 °F (2013)
Growing Degree Days 15 (Base 50)    
Moisture  
Dew Point 59 °F    
Average Humidity 85    
Maximum Humidity 100    
Minimum Humidity 56    
Precipitation  
Precipitation 0.00 in - - ()
Sea Level Pressure  
Sea Level Pressure 29.86 in    
Wind  
Wind Speed 9 mph (NW)    
Max Wind Speed 18 mph    
Max Gust Speed 23 mph    
Visibility 10 miles    
Events      
Averages and records for this station are not official NWS values.
T = Trace of Precipitation, MM = Missing Value Source: NWS Daily Summary

Daily Weather History Graph

Daily Weather History Graph

Search for Another Location

Airport or City:

Trip Planner

Search our weather history database for the weather conditions in past years. The results will help you decide how hot, cold, wet, or windy it might be!

Date:

Astronomy

Jul. 28, 2014 Rise Set
Actual Time 6:29 AM EDT 8:53 PM EDT
Civil Twilight 5:58 AM EDT 9:24 PM EDT
Nautical Twilight 5:19 AM EDT 10:02 PM EDT
Astronomical Twilight 4:37 AM EDT 10:45 PM EDT
Moon 8:10 AM EDT (7/28) 9:34 PM EDT (7/28)
Length of Visible Light 15h 26m
Length of Day
14h 24m
Waxing Crescent, 3% of the Moon is Illuminated
Jul 28
Waxing Crescent
Aug 3
First Quarter
Aug 10
Full
Aug 17
Last Quarter
Aug 25
New

Hourly Weather History & Observations

Time (EDT) Temp. Dew Point Humidity Pressure Visibility Wind Dir Wind Speed Gust Speed Precip Events Conditions
12:10 AM 64.4 °F 64.4 °F 100% 29.75 in 10.0 mi West 5.8 mph - 0.00 in   Mostly Cloudy
12:50 AM 62.6 °F 62.6 °F 100% 29.74 in 10.0 mi West 6.9 mph - 0.00 in   Clear
1:10 AM 62.6 °F 62.6 °F 100% 29.74 in 10.0 mi West 5.8 mph - 0.00 in   Clear
1:30 AM 62.6 °F 60.8 °F 94% 29.75 in 10.0 mi West 5.8 mph - 0.00 in   Clear
1:50 AM 60.8 °F 60.8 °F 100% 29.75 in 10.0 mi West 5.8 mph - 0.00 in   Clear
2:10 AM 60.8 °F 60.8 °F 100% 29.74 in 10.0 mi West 6.9 mph - 0.00 in   Clear
2:30 AM 60.8 °F 60.8 °F 100% 29.75 in 10.0 mi West 5.8 mph - 0.00 in   Clear
2:50 AM 60.8 °F 60.8 °F 100% 29.76 in 10.0 mi West 3.5 mph - 0.00 in   Clear
3:10 AM 59.0 °F 59.0 °F 100% 29.75 in 10.0 mi WNW 4.6 mph - 0.00 in   Clear
3:30 AM 59.0 °F 59.0 °F 100% 29.76 in 10.0 mi West 5.8 mph - 0.00 in   Clear
4:10 AM 60.8 °F 60.8 °F 100% 29.77 in 10.0 mi WNW 9.2 mph - 0.00 in   Overcast
4:30 AM 60.8 °F 60.8 °F 100% 29.78 in 10.0 mi NW 9.2 mph - 0.00 in   Overcast
4:50 AM 60.8 °F 60.8 °F 100% 29.79 in 10.0 mi NW 8.1 mph 17.3 mph 0.00 in   Overcast
5:10 AM 60.8 °F 60.8 °F 100% 29.80 in 10.0 mi WNW 9.2 mph - 0.00 in   Overcast
5:30 AM 60.8 °F 60.8 °F 100% 29.80 in 10.0 mi WNW 8.1 mph - 0.00 in   Overcast
5:50 AM 60.8 °F 60.8 °F 100% 29.81 in 10.0 mi WNW 6.9 mph - 0.00 in   Overcast
6:10 AM 60.8 °F 60.8 °F 100% 29.82 in 10.0 mi WNW 8.1 mph - 0.00 in   Overcast
6:30 AM 60.8 °F 60.8 °F 100% 29.82 in 10.0 mi WNW 8.1 mph - 0.00 in   Overcast
6:50 AM 60.8 °F 60.8 °F 100% 29.83 in 10.0 mi WNW 8.1 mph - 0.00 in   Overcast
7:10 AM 60.8 °F 60.8 °F 100% 29.83 in 10.0 mi WNW 9.2 mph - 0.00 in   Overcast
7:30 AM 60.8 °F 60.8 °F 100% 29.83 in 10.0 mi West 9.2 mph - 0.00 in   Overcast
7:50 AM 60.8 °F 60.8 °F 100% 29.84 in 10.0 mi WNW 8.1 mph - 0.00 in   Overcast
8:10 AM 60.8 °F 60.8 °F 100% 29.85 in 10.0 mi WNW 9.2 mph - 0.00 in   Overcast
8:30 AM 60.8 °F 60.8 °F 100% 29.85 in 5.0 mi WNW 9.2 mph - 0.00 in   Overcast
8:50 AM 60.8 °F 60.8 °F 100% 29.86 in 5.0 mi WNW 9.2 mph 16.1 mph 0.00 in   Mostly Cloudy
9:10 AM 60.8 °F 60.8 °F 100% 29.87 in 8.0 mi WNW 9.2 mph - 0.00 in   Mostly Cloudy
9:30 AM 60.8 °F 60.8 °F 100% 29.87 in 10.0 mi NW 6.9 mph - 0.00 in   Overcast
9:50 AM 60.8 °F 60.8 °F 100% 29.88 in 10.0 mi NW 9.2 mph - 0.00 in   Overcast
10:10 AM 62.6 °F 62.6 °F 100% 29.88 in 10.0 mi NW 9.2 mph - 0.00 in   Overcast
10:30 AM 62.6 °F 60.8 °F 94% 29.89 in 10.0 mi NW 10.4 mph - 0.00 in   Overcast
10:50 AM 62.6 °F 60.8 °F 94% 29.90 in 10.0 mi NW 8.1 mph 17.3 mph 0.00 in   Overcast
11:10 AM 64.4 °F 60.8 °F 88% 29.90 in 10.0 mi NNW 15.0 mph - 0.00 in   Overcast
11:30 AM 64.4 °F 57.2 °F 77% 29.91 in 10.0 mi NNW 18.4 mph 23.0 mph 0.00 in   Overcast
11:50 AM 66.2 °F 57.2 °F 73% 29.91 in 10.0 mi NNW 18.4 mph 23.0 mph 0.00 in   Mostly Cloudy
12:10 PM 66.2 °F 59.0 °F 78% 29.91 in 10.0 mi NNW 18.4 mph 23.0 mph 0.00 in   Scattered Clouds
12:30 PM 68.0 °F 59.0 °F 73% 29.91 in 10.0 mi NNW 11.5 mph 19.6 mph 0.00 in   Scattered Clouds
12:50 PM 66.2 °F 59.0 °F 78% 29.91 in 10.0 mi NW 15.0 mph 23.0 mph 0.00 in   Scattered Clouds
1:10 PM 66.2 °F 57.2 °F 73% 29.92 in 10.0 mi NW 12.7 mph - 0.00 in   Mostly Cloudy
1:30 PM 69.8 °F 57.2 °F 64% 29.92 in 10.0 mi NNW 15.0 mph - 0.00 in   Partly Cloudy
1:50 PM 69.8 °F 57.2 °F 64% 29.92 in 10.0 mi NW 13.8 mph 21.9 mph 0.00 in   Scattered Clouds
2:10 PM 68.0 °F 57.2 °F 68% 29.92 in 10.0 mi North 13.8 mph - 0.00 in   Mostly Cloudy
2:30 PM 69.8 °F 57.2 °F 64% 29.92 in 10.0 mi NNW 17.3 mph - 0.00 in   Scattered Clouds
2:50 PM 71.6 °F 55.4 °F 57% 29.92 in 10.0 mi NNW 16.1 mph 21.9 mph 0.00 in   Partly Cloudy
3:10 PM 71.6 °F 55.4 °F 57% 29.92 in 10.0 mi NNW 12.7 mph 19.6 mph 0.00 in   Scattered Clouds
3:30 PM 69.8 °F 55.4 °F 60% 29.93 in 10.0 mi WNW 11.5 mph 17.3 mph 0.00 in   Mostly Cloudy
4:10 PM 69.8 °F 55.4 °F 60% 29.93 in 10.0 mi NNW 17.3 mph 23.0 mph 0.00 in   Scattered Clouds
4:30 PM 71.6 °F 55.4 °F 57% 29.93 in 10.0 mi NW 11.5 mph - 0.00 in   Partly Cloudy
4:50 PM 69.8 °F 55.4 °F 60% 29.94 in 10.0 mi NNW 11.5 mph 17.3 mph 0.00 in   Scattered Clouds
5:10 PM 69.8 °F 53.6 °F 56% 29.93 in 10.0 mi WNW 13.8 mph 21.9 mph 0.00 in   Scattered Clouds
5:30 PM 69.8 °F 55.4 °F 60% 29.94 in 10.0 mi NW 9.2 mph 17.3 mph 0.00 in   Scattered Clouds
5:50 PM 69.8 °F 53.6 °F 56% 29.94 in 10.0 mi NW 12.7 mph 19.6 mph 0.00 in   Partly Cloudy
6:10 PM 69.8 °F 53.6 °F 56% 29.94 in 10.0 mi WNW 11.5 mph 17.3 mph 0.00 in   Clear
6:30 PM 68.0 °F 53.6 °F 60% 29.94 in 10.0 mi WNW 10.4 mph - 0.00 in   Partly Cloudy
6:40 PM 68.0 °F 55.4 °F 64% 29.94 in 10.0 mi NW 10.4 mph - 0.00 in   Clear